CW9560 Weather Reports


Display with metric or nautical units.
time (UTC)temp
F
wind
direction
speed
MPH
gust
MPH
rain 1hr
in
rain 24hr
in
rain mn
in
humidity
%
barometer
mb
20180524022006 47 117 2.0 3.0 0.00 0.00 0.00 78 1027.2
20180524021505 47 117 1.0 3.0 0.00 0.00 0.00 78 1027.3
20180524021006 47 117 2.0 3.0 0.00 0.00 0.00 78 1027.2
20180524020506 47 117 2.0 3.0 0.00 0.00 0.00 78 1027.2
20180524020005 47 117 0.0 3.0 0.00 0.00 0.00 78 1027.2
20180524015505 47 117 1.0 3.0 0.00 0.00 0.00 78 1027.3
20180524015005 47 117 2.0 3.0 0.00 0.00 0.00 78 1027.3
20180524014504 47 117 3.0 3.0 0.00 0.00 0.00 78 1027.4
20180524014005 47 117 3.0 6.0 0.00 0.00 0.00 78 1027.4
20180524013505 47 117 3.0 6.0 0.00 0.00 0.00 78 1027.4
20180524013005 47 117 2.0 6.0 0.00 0.00 0.00 78 1027.4
20180524012505 47 335 2.0 3.0 0.00 0.00 0.00 78 1027.5
20180524012005 47 333 0.0 0.0 0.00 0.00 0.00 78 1027.5
20180524011005 47 333 0.0 0.0 0.00 0.00 0.00 78 1027.5
20180524010506 47 333 0.0 3.0 0.00 0.00 0.00 78 1027.4
20180524010007 47 333 0.0 3.0 0.00 0.00 0.00 78 1027.4
20180524005505 47 333 1.0 3.0 0.00 0.00 0.00 78 1027.4
20180524005005 47 333 2.0 3.0 0.00 0.00 0.00 78 1027.4
20180524004505 47 333 1.0 3.0 0.00 0.00 0.00 78 1027.4
20180524004005 47 333 2.0 5.0 0.00 0.00 0.00 78 1027.3
20180524003505 47 329 2.0 5.0 0.00 0.00 0.00 77 1027.4
20180524003006 47 331 3.0 5.0 0.00 0.00 0.00 78 1027.3
20180524002506 47 329 2.0 5.0 0.00 0.00 0.00 78 1027.4
20180524002005 47 329 3.0 5.0 0.00 0.00 0.00 78 1027.5
20180524001506 47 355 2.0 3.0 0.00 0.00 0.00 78 1027.4
20180524001006 47 355 0.0 3.0 0.00 0.00 0.00 78 1027.5
20180524000505 47 355 1.0 3.0 0.00 0.00 0.00 78 1027.6
20180524000005 46 355 0.0 3.0 0.00 0.00 0.00 78 1027.6
20180523235505 46 355 1.0 5.0 0.00 0.00 0.00 78 1027.6
20180523235005 46 355 2.0 5.0 0.00 0.00 0.00 78 1027.6
20180523234510 46 328 2.0 5.0 0.00 0.00 0.00 78 1027.5
20180523234006 46 328 2.0 5.0 0.00 0.00 0.00 78 1027.5
20180523233505 46 332 1.0 8.0 0.00 0.00 0.00 78 1027.6
20180523233006 46 333 1.0 8.0 0.00 0.00 0.00 78 1027.6
20180523232505 46 335 3.0 8.0 0.00 0.00 0.00 78 1027.6
20180523232006 46 355 2.0 3.0 0.00 0.00 0.00 78 1027.6
20180523231505 46 355 2.0 3.0 0.00 0.00 0.00 78 1027.6
20180523231005 46 355 0.0 3.0 0.00 0.00 0.00 78 1027.6
20180523230505 45 355 1.0 3.0 0.00 0.00 0.00 78 1027.6
20180523230007 45 355 1.0 3.0 0.00 0.00 0.00 78 1027.6
20180523225505 45 355 1.0 2.0 0.00 0.00 0.00 78 1027.6
20180523225005 45 355 0.0 2.0 0.00 0.00 0.00 78 1027.6
20180523224505 45 355 0.0 3.0 0.00 0.00 0.00 78 1027.5
20180523224006 45 355 1.0 3.0 0.00 0.00 0.00 78 1027.5
20180523223505 45 14 2.0 3.0 0.00 0.00 0.00 78 1027.5
20180523223006 45 26 1.0 3.0 0.00 0.00 0.00 77 1027.4
20180523222505 45 26 2.0 3.0 0.00 0.00 0.00 77 1027.3
20180523222005 45 26 2.0 3.0 0.00 0.00 0.00 77 1027.3
20180523221506 45 26 2.0 3.0 0.00 0.00 0.00 78 1027.4
20180523221006 45 26 1.0 2.0 0.00 0.00 0.00 78 1027.3
20180523220506 45 26 1.0 3.0 0.00 0.00 0.00 78 1027.3
20180523220005 46 26 1.0 3.0 0.00 0.00 0.00 78 1027.3
20180523215507 46 26 2.0 3.0 0.00 0.00 0.00 78 1027.4
20180523215006 46 28 0.0 2.0 0.00 0.00 0.00 78 1027.4
20180523214506 47 28 0.0 3.0 0.00 0.00 0.00 78 1027.3
20180523214005 47 28 1.0 3.0 0.00 0.00 0.00 78 1027.3
20180523213506 48 28 1.0 3.0 0.00 0.00 0.00 78 1027.3
20180523213006 48 28 1.0 3.0 0.00 0.00 0.00 77 1027.4
20180523212505 48 47 2.0 3.0 0.00 0.00 0.00 77 1027.4
20180523212005 49 56 2.0 6.0 0.00 0.00 0.00 77 1027.4
20180523211505 49 125 3.0 7.0 0.00 0.00 0.00 77 1027.3
20180523211005 49 84 2.0 9.0 0.00 0.00 0.00 77 1027.3
20180523210505 50 86 5.0 9.0 0.00 0.00 0.00 77 1027.3
20180523210007 50 97 4.0 8.0 0.00 0.00 0.00 77 1027.2
20180523205506 50 106 5.0 10.0 0.00 0.00 0.00 77 1027.1
20180523205006 50 101 5.0 10.0 0.00 0.00 0.00 77 1027.1
20180523204505 51 103 4.0 10.0 0.00 0.00 0.00 77 1027.0
20180523204005 51 110 6.0 12.0 0.00 0.00 0.00 77 1027.0
20180523203506 51 97 6.0 12.0 0.00 0.00 0.00 77 1026.9
20180523203005 52 107 6.0 12.0 0.00 0.00 0.00 76 1026.9
20180523202505 52 90 5.0 12.0 0.00 0.00 0.00 76 1026.8
20180523202006 53 99 5.0 12.0 0.00 0.00 0.00 76 1026.8
20180523201506 53 95 6.0 12.0 0.00 0.00 0.00 76 1026.8
20180523201005 53 100 6.0 12.0 0.00 0.00 0.00 76 1026.8
20180523200506 54 110 5.0 9.0 0.00 0.00 0.00 76 1026.7
20180523200007 54 75 5.0 9.0 0.00 0.00 0.00 75 1026.6
20180523195505 54 97 6.0 12.0 0.00 0.00 0.00 75 1026.6
20180523195006 55 92 7.0 12.0 0.00 0.00 0.00 75 1026.5
20180523194505 55 109 6.0 10.0 0.00 0.00 0.00 75 1026.5
20180523194005 55 116 4.0 9.0 0.00 0.00 0.00 74 1026.5
20180523193505 56 133 3.0 9.0 0.00 0.00 0.00 74 1026.5
20180523193005 56 107 5.0 10.0 0.00 0.00 0.00 74 1026.4
20180523192505 56 104 5.0 10.0 0.00 0.00 0.00 74 1026.4
20180523192006 57 125 5.0 10.0 0.00 0.00 0.00 73 1026.3
20180523191505 57 105 6.0 10.0 0.00 0.00 0.00 73 1026.3
20180523191006 57 105 6.0 10.0 0.00 0.00 0.00 72 1026.2
20180523190504 58 111 4.0 10.0 0.00 0.00 0.00 72 1026.2
20180523190007 58 99 7.0 12.0 0.00 0.00 0.00 71 1026.1
20180523185505 58 114 7.0 12.0 0.00 0.00 0.00 71 1026.1
20180523185005 58 121 6.0 12.0 0.00 0.00 0.00 70 1026.1
20180523184505 59 115 7.0 13.0 0.00 0.00 0.00 70 1026.1
20180523184006 59 116 5.0 13.0 0.00 0.00 0.00 70 1026.1
20180523183504 59 110 8.0 13.0 0.00 0.00 0.00 69 1026.2
20180523183006 60 99 7.0 12.0 0.00 0.00 0.00 69 1026.1
20180523182505 60 114 6.0 12.0 0.00 0.00 0.00 68 1026.1
20180523182005 60 108 5.0 10.0 0.00 0.00 0.00 68 1026.1
20180523181505 60 105 6.0 12.0 0.00 0.00 0.00 68 1026.1
20180523181006 60 105 6.0 12.0 0.00 0.00 0.00 68 1026.0
20180523180505 60 105 9.0 12.0 0.00 0.00 0.00 68 1026.1
20180523180005 60 82 6.0 12.0 0.00 0.00 0.00 68 1026.1
20180523175505 60 114 8.0 12.0 0.00 0.00 0.00 67 1026.0
20180523175006 61 103 7.0 12.0 0.00 0.00 0.00 67 1026.1
20180523174505 61 124 7.0 12.0 0.00 0.00 0.00 66 1026.1
20180523174006 61 118 4.0 10.0 0.00 0.00 0.00 67 1026.0
20180523173505 61 102 7.0 10.0 0.00 0.00 0.00 65 1026.0
20180523173006 61 119 6.0 10.0 0.00 0.00 0.00 66 1026.0
20180523172505 61 134 5.0 12.0 0.00 0.00 0.00 66 1026.1
20180523172006 61 125 4.0 12.0 0.00 0.00 0.00 65 1026.1
20180523171505 61 113 6.0 10.0 0.00 0.00 0.00 65 1026.2
20180523171005 61 101 6.0 10.0 0.00 0.00 0.00 64 1026.2
20180523170505 61 117 5.0 9.0 0.00 0.00 0.00 65 1026.2
20180523170006 61 98 6.0 12.0 0.00 0.00 0.00 65 1026.3
20180523165505 61 118 5.0 12.0 0.00 0.00 0.00 65 1026.3
20180523165006 61 91 7.0 12.0 0.00 0.00 0.00 64 1026.3
20180523164505 61 93 6.0 12.0 0.00 0.00 0.00 64 1026.4
20180523164006 61 85 6.0 12.0 0.00 0.00 0.00 64 1026.5
20180523163505 62 111 8.0 12.0 0.00 0.00 0.00 62 1026.5
20180523163005 61 90 7.0 12.0 0.00 0.00 0.00 63 1026.5
20180523162505 62 132 6.0 10.0 0.00 0.00 0.00 63 1026.5
20180523162005 61 112 6.0 12.0 0.00 0.00 0.00 64 1026.5
20180523161510 61 107 6.0 12.0 0.00 0.00 0.00 64 1026.6
20180523161006 61 92 7.0 12.0 0.00 0.00 0.00 64 1026.6
20180523160520 61 98 8.0 12.0 0.00 0.00 0.00 64 1026.6
20180523160005 61 97 7.0 13.0 0.00 0.00 0.00 64 1026.7
20180523155505 61 115 6.0 13.0 0.00 0.00 0.00 64 1026.6
20180523155006 61 100 7.0 12.0 0.00 0.00 0.00 64 1026.7
20180523154505 61 114 7.0 12.0 0.00 0.00 0.00 64 1026.7
20180523154005 61 88 9.0 13.0 0.00 0.00 0.00 64 1026.7
20180523153505 61 134 7.0 13.0 0.00 0.00 0.00 65 1026.7
20180523153005 61 88 7.0 13.0 0.00 0.00 0.00 63 1026.8
20180523152504 61 98 7.0 12.0 0.00 0.00 0.00 65 1026.8
20180523152005 61 115 6.0 12.0 0.00 0.00 0.00 65 1026.8
20180523151505 61 126 7.0 12.0 0.00 0.00 0.00 64 1026.8
20180523151006 61 131 7.0 13.0 0.00 0.00 0.00 65 1026.9
20180523150505 61 106 6.0 13.0 0.00 0.00 0.00 64 1026.9
20180523150007 61 127 7.0 13.0 0.00 0.00 0.00 65 1027.0
20180523145506 61 90 7.0 13.0 0.00 0.00 0.00 64 1027.0
20180523145005 61 105 6.0 10.0 0.00 0.00 0.00 64 1027.1
20180523144505 61 134 5.0 12.0 0.00 0.00 0.00 64 1027.1
20180523144005 62 101 7.0 13.0 0.00 0.00 0.00 65 1027.1
20180523143505 61 145 5.0 13.0 0.00 0.00 0.00 65 1027.1
20180523143006 61 107 5.0 13.0 0.00 0.00 0.00 66 1027.1
20180523142504 60 105 6.0 13.0 0.00 0.00 0.00 65 1027.2
20180523142006 60 126 6.0 12.0 0.00 0.00 0.00 66 1027.2
20180523141504 60 99 5.0 12.0 0.00 0.00 0.00 66 1027.3
20180523141005 60 105 6.0 12.0 0.00 0.00 0.00 66 1027.3
20180523140505 60 124 7.0 12.0 0.00 0.00 0.00 66 1027.4
20180523140005 60 122 7.0 12.0 0.00 0.00 0.00 65 1027.4
20180523135505 61 90 6.0 12.0 0.00 0.00 0.00 66 1027.4
20180523135005 60 121 5.0 10.0 0.00 0.00 0.00 67 1027.4
20180523134506 60 112 5.0 12.0 0.00 0.00 0.00 66 1027.4
20180523134005 60 121 6.0 12.0 0.00 0.00 0.00 67 1027.5
20180523133505 60 126 7.0 12.0 0.00 0.00 0.00 68 1027.5
20180523133005 59 130 5.0 12.0 0.00 0.00 0.00 68 1027.6
20180523132504 59 97 7.0 12.0 0.00 0.00 0.00 67 1027.6
20180523132006 59 80 7.0 12.0 0.00 0.00 0.00 69 1027.7
20180523131505 58 142 6.0 12.0 0.00 0.00 0.00 68 1027.7
20180523131006 58 143 5.0 9.0 0.00 0.00 0.00 68 1027.7
20180523130505 58 52 5.0 12.0 0.00 0.00 0.00 68 1027.7
20180523130006 58 128 6.0 12.0 0.00 0.00 0.00 67 1027.7
20180523125505 59 114 5.0 10.0 0.00 0.00 0.00 67 1027.7
20180523125007 59 147 3.0 10.0 0.00 0.00 0.00 68 1027.7
20180523124509 58 155 5.0 10.0 0.00 0.00 0.00 68 1027.7
20180523124005 58 153 4.0 10.0 0.00 0.00 0.00 68 1027.7
20180523123505 58 100 5.0 10.0 0.00 0.00 0.00 69 1027.7
20180523123009 58 111 6.0 10.0 0.00 0.00 0.00 69 1027.8
20180523122505 58 87 4.0 8.0 0.00 0.00 0.00 69 1027.7
20180523122005 57 123 5.0 8.0 0.00 0.00 0.00 70 1027.8
20180523121507 57 154 3.0 12.0 0.00 0.00 0.00 70 1027.8
20180523121006 57 139 5.0 12.0 0.00 0.00 0.00 70 1027.9
20180523120505 57 123 5.0 10.0 0.00 0.00 0.00 70 1027.9
20180523120005 57 134 4.0 10.0 0.00 0.00 0.00 70 1027.9
20180523115506 56 121 3.0 9.0 0.00 0.00 0.00 71 1028.0
20180523115006 56 124 4.0 9.0 0.00 0.00 0.00 71 1027.9
20180523114505 56 88 4.0 9.0 0.00 0.00 0.00 71 1027.9
20180523114005 56 127 6.0 9.0 0.00 0.00 0.00 72 1027.9
20180523113504 55 111 5.0 9.0 0.00 0.00 0.00 73 1028.0
20180523113005 55 100 6.0 9.0 0.00 0.00 0.00 72 1028.0
20180523112505 55 92 6.0 10.0 0.00 0.00 0.00 72 1028.0
20180523112007 55 126 5.0 10.0 0.00 0.00 0.00 72 1028.1
20180523111504 54 136 4.0 10.0 0.00 0.00 0.00 73 1028.1
20180523111005 54 78 4.0 8.0 0.00 0.00 0.00 73 1028.1
20180523110505 54 114 3.0 8.0 0.00 0.00 0.00 73 1028.1
20180523110006 54 89 5.0 9.0 0.00 0.00 0.00 74 1028.2
20180523105505 54 125 4.0 9.0 0.00 0.00 0.00 73 1028.2
20180523105005 54 100 5.0 9.0 0.00 0.00 0.00 75 1028.1
20180523104505 53 124 4.0 8.0 0.00 0.00 0.00 74 1028.2
20180523104005 53 129 5.0 10.0 0.00 0.00 0.00 74 1028.1
20180523103505 53 95 3.0 10.0 0.00 0.00 0.00 74 1028.1
20180523102013 53 108 3.0 9.0 0.00 0.00 0.00 75 1028.0
20180523101512 52 114 3.0 9.0 0.00 0.00 0.00 75 1028.0
20180523101013 52 130 3.0 10.0 0.00 0.00 0.00 75 1028.0
20180523100513 52 125 5.0 12.0 0.00 0.00 0.00 75 1028.0
20180523100013 52 134 6.0 12.0 0.00 0.00 0.00 75 1028.0
20180523095513 52 140 2.0 9.0 0.00 0.00 0.00 75 1028.0
20180523095013 52 86 6.0 9.0 0.00 0.00 0.00 75 1028.0
20180523094512 52 93 4.0 9.0 0.00 0.00 0.00 75 1028.0
20180523094013 52 123 4.0 10.0 0.00 0.00 0.00 75 1028.0
20180523093513 52 103 7.0 10.0 0.00 0.00 0.00 75 1028.0
20180523093014 52 115 5.0 9.0 0.00 0.00 0.00 76 1028.0
20180523092513 52 114 3.0 8.0 0.00 0.00 0.00 76 1028.0
20180523091014 51 125 3.0 9.0 0.00 0.00 0.00 76 1028.1
20180523090514 51 112 4.0 9.0 0.00 0.00 0.00 76 1028.1
20180523090014 51 102 4.0 9.0 0.00 0.00 0.00 76 1028.1
20180523085513 51 110 5.0 10.0 0.00 0.00 0.00 76 1028.0
20180523085014 51 137 6.0 10.0 0.00 0.00 0.00 76 1028.0
20180523084513 51 95 5.0 10.0 0.00 0.00 0.00 76 1028.0
20180523084013 51 88 4.0 8.0 0.00 0.00 0.00 76 1028.0
20180523083513 51 98 5.0 10.0 0.00 0.00 0.00 76 1028.0
20180523083013 51 111 3.0 10.0 0.00 0.00 0.00 76 1028.0
20180523082513 51 91 6.0 10.0 0.00 0.00 0.00 76 1028.0
20180523082013 51 103 3.0 10.0 0.00 0.00 0.00 76 1028.0
20180523081513 51 118 6.0 10.0 0.00 0.00 0.00 76 1027.9
20180523081014 51 93 4.0 9.0 0.00 0.00 0.00 76 1027.9
20180523080512 51 106 3.0 8.0 0.00 0.00 0.00 76 1027.9
20180523080012 51 105 5.0 8.0 0.00 0.00 0.00 76 1027.9
20180523075512 51 136 3.0 8.0 0.00 0.00 0.00 76 1027.8
20180523075013 50 127 6.0 8.0 0.00 0.00 0.00 76 1027.7
20180523074513 50 120 5.0 8.0 0.00 0.00 0.00 76 1027.7
20180523074013 50 124 2.0 8.0 0.00 0.00 0.00 76 1027.7
20180523073513 50 119 3.0 8.0 0.00 0.00 0.00 76 1027.7
20180523073013 50 110 4.0 10.0 0.00 0.00 0.00 76 1027.7
20180523072513 50 136 5.0 10.0 0.00 0.00 0.00 76 1027.6
20180523072013 50 101 5.0 9.0 0.00 0.00 0.00 76 1027.6
20180523071513 50 115 3.0 8.0 0.00 0.00 0.00 76 1027.6
20180523071013 50 113 2.0 8.0 0.00 0.00 0.00 77 1027.6
20180523070512 50 130 4.0 9.0 0.00 0.00 0.00 77 1027.5
20180523070015 50 99 3.0 9.0 0.00 0.00 0.00 77 1027.5
20180523065513 50 131 3.0 9.0 0.00 0.00 0.00 77 1027.4
20180523065013 50 122 6.0 9.0 0.00 0.00 0.00 77 1027.4
20180523064512 50 115 4.0 8.0 0.00 0.00 0.00 77 1027.4
20180523064013 50 100 3.0 8.0 0.00 0.00 0.00 77 1027.3
20180523063513 50 113 2.0 7.0 0.00 0.00 0.00 77 1027.3
20180523063013 50 126 3.0 7.0 0.00 0.00 0.00 77 1027.2
20180523062512 50 126 2.0 6.0 0.00 0.00 0.00 77 1027.2
20180523062013 50 123 2.0 8.0 0.00 0.00 0.00 77 1027.2
20180523061513 49 94 3.0 8.0 0.00 0.00 0.00 77 1027.1
20180523061013 49 110 2.0 5.0 0.00 0.00 0.00 77 1027.1
20180523060513 49 131 2.0 5.0 0.00 0.00 0.00 77 1027.0
20180523060012 49 129 1.0 3.0 0.00 0.00 0.00 77 1027.0
20180523055513 49 116 1.0 5.0 0.00 0.00 0.00 77 1027.0
20180523055014 49 116 3.0 5.0 0.00 0.00 0.00 77 1027.0
20180523054513 49 128 3.0 5.0 0.00 0.00 0.00 77 1026.9
20180523054013 49 105 2.0 6.0 0.00 0.00 0.00 77 1027.0
20180523053513 49 92 1.0 6.0 0.00 0.00 0.00 77 1026.9
20180523053013 49 115 1.0 3.0 0.00 0.00 0.00 77 1026.9
20180523052512 49 115 0.0 3.0 0.00 0.00 0.00 77 1026.9
20180523052013 49 115 1.0 3.0 0.00 0.00 0.00 77 1026.9
20180523051512 49 115 1.0 3.0 0.00 0.00 0.00 77 1026.8
20180523051013 49 115 2.0 6.0 0.00 0.00 0.00 77 1026.8
20180523050512 49 110 2.0 6.0 0.00 0.00 0.00 77 1026.8
20180523050014 49 110 2.0 3.0 0.00 0.00 0.00 77 1026.8
20180523045512 49 110 1.0 3.0 0.00 0.00 0.00 77 1026.7
20180523045014 49 110 2.0 3.0 0.00 0.00 0.00 77 1026.7
20180523044512 49 110 2.0 3.0 0.00 0.00 0.00 77 1026.7
20180523044013 49 110 2.0 6.0 0.00 0.00 0.00 77 1026.7
20180523043513 49 110 2.0 6.0 0.00 0.00 0.00 77 1026.7
20180523043013 49 110 3.0 6.0 0.00 0.00 0.00 77 1026.6
20180523042512 49 110 2.0 5.0 0.00 0.00 0.00 77 1026.6
20180523042014 49 121 2.0 6.0 0.00 0.00 0.00 77 1026.6
20180523041512 49 118 2.0 6.0 0.00 0.00 0.00 77 1026.6
20180523041013 49 115 3.0 6.0 0.00 0.00 0.00 77 1026.5
20180523040513 49 122 3.0 5.0 0.00 0.00 0.00 77 1026.5
20180523040012 49 144 2.0 3.0 0.00 0.00 0.00 77 1026.5
20180523035513 49 144 1.0 3.0 0.00 0.00 0.00 77 1026.6
20180523035013 49 144 2.0 3.0 0.00 0.00 0.00 77 1026.6
20180523034513 49 144 2.0 3.0 0.00 0.00 0.00 77 1026.5
20180523034013 49 144 2.0 3.0 0.00 0.00 0.00 77 1026.5
20180523033512 49 144 3.0 6.0 0.00 0.00 0.00 77 1026.5
20180523033013 49 109 2.0 7.0 0.00 0.00 0.00 77 1026.4
20180523032512 49 96 3.0 7.0 0.00 0.00 0.00 77 1026.5
20180523032013 49 99 3.0 6.0 0.00 0.00 0.00 77 1026.5
20180523031512 49 116 3.0 6.0 0.00 0.00 0.00 77 1026.5
20180523031013 49 109 2.0 3.0 0.00 0.00 0.00 77 1026.6
20180523030512 49 117 1.0 7.0 0.00 0.00 0.00 77 1026.6
20180523030013 49 117 2.0 7.0 0.00 0.00 0.00 77 1026.6
20180523025513 49 116 3.0 7.0 0.00 0.00 0.00 77 1026.6
20180523025013 49 117 3.0 5.0 0.00 0.00 0.00 77 1026.6
20180523024513 49 98 1.0 6.0 0.00 0.00 0.00 77 1026.6
20180523024013 49 97 3.0 6.0 0.00 0.00 0.00 77 1026.5
20180523023513 49 111 3.0 6.0 0.00 0.00 0.00 77 1026.6
20180523023014 49 132 2.0 3.0 0.00 0.00 0.00 77 1026.6
20180523022513 49 132 2.0 3.0 0.00 0.00 0.00 77 1026.6